When you browse on this site, cookies collect data to enhance your experience and personalize the content and advertising you see.
Visit our Privacy Policy to learn more. By continuing to use the site, you agree to this use of cookies and data.
  • In Netherlands
  • List of Countries
  • For 7 days
  • Water Temperature
  • Satellite Maps
  • Weather Map
  • Weather Widgets
  • user-avatar
    Login

    Hourly Weather Malyy Malgobek

    Today, 24 April, Wednesday

    Time Temperature Precipitation Wind Pressure Humidity
    00:00 +5°C° 0 mm 2 mps 727 mmHg 51%
    01:00 +5°C° 0 mm 2 mps 727 mmHg 51%
    02:00 +4°C° 0 mm 2 mps 727 mmHg 51%
    03:00 +4°C° 0 mm 3 mps 726 mmHg 53%
    04:00 +4°C° 0 mm 3 mps 726 mmHg 54%
    05:00 +4°C° 0 mm 3 mps 726 mmHg 56%
    06:00 +4°C° 0 mm 3 mps 726 mmHg 57%
    07:00 +7°C° 0 mm 3 mps 727 mmHg 54%
    08:00 +10°C° 0 mm 3 mps 727 mmHg 51%
    09:00 +12°C° 0 mm 3 mps 727 mmHg 47%
    10:00 +13°C° 0 mm 3 mps 726 mmHg 45%
    11:00 +14°C° 0 mm 3 mps 726 mmHg 42%
    12:00 +16°C° 0 mm 3 mps 726 mmHg 39%
    13:00 +16°C° 0 mm 3 mps 726 mmHg 40%
    14:00 +16°C° 0 mm 3 mps 726 mmHg 41%
    15:00 +16°C° 0 mm 3 mps 725 mmHg 43%
    16:00 +14°C° 0.1 mm 3 mps 725 mmHg 48%
    17:00 +15°C° 0.1 mm 2 mps 725 mmHg 53%
    18:00 +14°C° 0.1 mm 1 mps 726 mmHg 58%
    19:00 +13°C° 0.1 mm 2 mps 726 mmHg 59%
    20:00 +11°C° 0.1 mm 3 mps 726 mmHg 60%
    21:00 +8°C° 0.1 mm 4 mps 726 mmHg 61%
    22:00 +8°C° 0.1 mm 4 mps 726 mmHg 63%
    23:00 +7°C° 0.1 mm 4 mps 726 mmHg 64%

    Tomorrow, 25 April, Thursday

    Time Temperature Precipitation Wind Pressure Humidity
    00:00 +7°C° 0.1 mm 4 mps 726 mmHg 65%
    01:00 +7°C° 0.3 mm 4 mps 726 mmHg 67%
    02:00 +7°C° 0.3 mm 4 mps 726 mmHg 69%
    03:00 +7°C° 0.3 mm 4 mps 726 mmHg 71%
    04:00 +6°C° 0.4 mm 4 mps 726 mmHg 72%
    05:00 +7°C° 0.4 mm 3 mps 726 mmHg 74%
    06:00 +7°C° 0.4 mm 3 mps 726 mmHg 76%
    07:00 +8°C° 0.3 mm 3 mps 726 mmHg 74%
    08:00 +9°C° 0.3 mm 3 mps 726 mmHg 72%
    09:00 +10°C° 0.3 mm 3 mps 726 mmHg 69%
    10:00 +12°C° 0 mm 3 mps 726 mmHg 64%
    11:00 +15°C° 0 mm 2 mps 726 mmHg 58%
    12:00 +16°C° 0 mm 1 mps 726 mmHg 53%
    13:00 +18°C° 0.2 mm 1 mps 726 mmHg 51%
    14:00 +18°C° 0.2 mm 1 mps 726 mmHg 49%
    15:00 +18°C° 0.2 mm 1 mps 726 mmHg 48%
    16:00 +18°C° 0.2 mm 1 mps 726 mmHg 53%
    17:00 +16°C° 0.2 mm 1 mps 726 mmHg 57%
    18:00 +15°C° 0.2 mm 1 mps 726 mmHg 62%
    19:00 +14°C° 0 mm 1 mps 726 mmHg 64%
    20:00 +13°C° 0 mm 1 mps 726 mmHg 65%
    21:00 +12°C° 0 mm 1 mps 726 mmHg 67%
    22:00 +11°C° 0 mm 1 mps 726 mmHg 67%
    23:00 +11°C° 0 mm 1 mps 726 mmHg 66%

    Day after tomorrow, 26 April, Friday

    Time Temperature Precipitation Wind Pressure Humidity
    00:00 +9°C° 0 mm 2 mps 726 mmHg 66%
    01:00 +10°C° 0 mm 1 mps 726 mmHg 64%
    02:00 +9°C° 0 mm 1 mps 725 mmHg 62%
    03:00 +9°C° 0 mm 1 mps 725 mmHg 60%
    04:00 +9°C° 0 mm 1 mps 725 mmHg 60%
    05:00 +9°C° 0 mm 1 mps 725 mmHg 60%
    06:00 +9°C° 0 mm 1 mps 725 mmHg 60%
    07:00 +11°C° 0 mm 1 mps 725 mmHg 56%
    08:00 +13°C° 0 mm 1 mps 725 mmHg 52%
    09:00 +15°C° 0 mm 0 mps 725 mmHg 47%
    10:00 +18°C° 0 mm 1 mps 725 mmHg 46%
    11:00 +18°C° 0 mm 2 mps 725 mmHg 45%
    12:00 +19°C° 0 mm 2 mps 724 mmHg 44%
    13:00 +19°C° 0 mm 3 mps 724 mmHg 43%
    14:00 +20°C° 0 mm 3 mps 724 mmHg 43%
    15:00 +20°C° 0 mm 3 mps 724 mmHg 42%
    16:00 +19°C° 0 mm 3 mps 723 mmHg 47%
    17:00 +18°C° 0 mm 3 mps 723 mmHg 51%
    18:00 +17°C° 0 mm 3 mps 723 mmHg 56%
    19:00 +16°C° 0 mm 3 mps 723 mmHg 59%
    20:00 +13°C° 0 mm 3 mps 724 mmHg 61%
    21:00 +12°C° 0 mm 3 mps 724 mmHg 64%
    22:00 +11°C° 0 mm 3 mps 724 mmHg 65%
    23:00 +12°C° 0 mm 2 mps 723 mmHg 65%

    27 April, Saturday

    Time Temperature Precipitation Wind Pressure Humidity
    00:00 +10°C° 0 mm 2 mps 723 mmHg 66%
    01:00 +10°C° 0 mm 2 mps 723 mmHg 66%
    02:00 +10°C° 0 mm 1 mps 723 mmHg 66%
    03:00 +10°C° 0 mm 1 mps 723 mmHg 66%
    04:00 +10°C° 0 mm 1 mps 723 mmHg 67%
    05:00 +10°C° 0 mm 1 mps 723 mmHg 69%
    06:00 +9°C° 0 mm 0 mps 722 mmHg 70%
    07:00 +12°C° 0 mm 1 mps 722 mmHg 64%
    08:00 +14°C° 0 mm 1 mps 722 mmHg 58%
    09:00 +16°C° 0 mm 2 mps 722 mmHg 52%
    10:00 +18°C° 0 mm 2 mps 722 mmHg 50%
    11:00 +19°C° 0 mm 3 mps 722 mmHg 47%
    12:00 +20°C° 0 mm 4 mps 721 mmHg 44%
    13:00 +21°C° 0 mm 4 mps 721 mmHg 43%
    14:00 +21°C° 0 mm 4 mps 721 mmHg 43%
    15:00 +21°C° 0 mm 4 mps 720 mmHg 42%
    16:00 +20°C° 0 mm 4 mps 720 mmHg 46%
    17:00 +19°C° 0 mm 4 mps 720 mmHg 50%
    18:00 +17°C° 0 mm 4 mps 720 mmHg 54%
    19:00 +14°C° 0.1 mm 4 mps 720 mmHg 56%
    20:00 +13°C° 0.1 mm 3 mps 720 mmHg 59%
    21:00 +12°C° 0.1 mm 2 mps 720 mmHg 61%
    22:00 +10°C° 0 mm 2 mps 720 mmHg 64%
    23:00 +11°C° 0 mm 1 mps 720 mmHg 66%

    28 April, Sunday

    Time Temperature Precipitation Wind Pressure Humidity
    00:00 +9°C° 0 mm 0 mps 720 mmHg 69%
    01:00 +9°C° 0 mm 0 mps 719 mmHg 71%
    02:00 +8°C° 0 mm 0 mps 719 mmHg 73%
    03:00 +9°C° 0 mm 1 mps 719 mmHg 75%
    04:00 +9°C° 0 mm 1 mps 719 mmHg 76%
    05:00 +9°C° 0 mm 1 mps 718 mmHg 77%
    06:00 +9°C° 0 mm 1 mps 718 mmHg 77%
    07:00 +12°C° 0 mm 1 mps 718 mmHg 69%
    08:00 +14°C° 0 mm 1 mps 718 mmHg 61%
    09:00 +16°C° 0 mm 2 mps 718 mmHg 53%
    10:00 +17°C° 0 mm 2 mps 718 mmHg 50%
    11:00 +19°C° 0 mm 2 mps 718 mmHg 46%
    12:00 +20°C° 0 mm 2 mps 718 mmHg 43%
    13:00 +21°C° 0 mm 2 mps 718 mmHg 43%
    14:00 +21°C° 0 mm 2 mps 717 mmHg 43%
    15:00 +22°C° 0 mm 3 mps 717 mmHg 43%
    16:00 +21°C° 0 mm 2 mps 717 mmHg 47%
    17:00 +20°C° 0 mm 2 mps 717 mmHg 52%
    18:00 +19°C° 0 mm 2 mps 717 mmHg 56%
    19:00 +17°C° 0.4 mm 2 mps 717 mmHg 59%
    20:00 +16°C° 0.4 mm 1 mps 717 mmHg 61%
    21:00 +14°C° 0.4 mm 1 mps 718 mmHg 64%
    22:00 +14°C° 0 mm 1 mps 717 mmHg 65%
    23:00 +13°C° 0 mm 1 mps 717 mmHg 67%

    29 April, Monday

    Time Temperature Precipitation Wind Pressure Humidity
    00:00 +13°C° 0 mm 1 mps 717 mmHg 68%
    01:00 +13°C° 0 mm 1 mps 717 mmHg 69%
    02:00 +12°C° 0 mm 1 mps 717 mmHg 69%
    03:00 +12°C° 0 mm 1 mps 717 mmHg 70%
    04:00 +12°C° 0 mm 1 mps 717 mmHg 70%
    05:00 +12°C° 0 mm 1 mps 717 mmHg 70%
    06:00 +12°C° 0 mm 1 mps 717 mmHg 70%
    07:00 +15°C° 0 mm 2 mps 717 mmHg 64%
    08:00 +17°C° 0 mm 2 mps 718 mmHg 58%
    09:00 +19°C° 0 mm 2 mps 718 mmHg 53%
    10:00 +20°C° 0 mm 2 mps 718 mmHg 50%
    11:00 +21°C° 0 mm 2 mps 717 mmHg 47%
    12:00 +23°C° 0 mm 2 mps 717 mmHg 44%
    13:00 +24°C° 0 mm 2 mps 717 mmHg 43%
    14:00 +24°C° 0 mm 2 mps 717 mmHg 42%
    15:00 +24°C° 0 mm 2 mps 717 mmHg 41%
    16:00 +23°C° 0 mm 2 mps 717 mmHg 46%
    17:00 +21°C° 0 mm 2 mps 717 mmHg 52%
    18:00 +20°C° 0 mm 2 mps 717 mmHg 57%
    19:00 +19°C° 0.3 mm 2 mps 717 mmHg 60%
    20:00 +19°C° 0.3 mm 1 mps 717 mmHg 62%
    21:00 +18°C° 0.3 mm 1 mps 717 mmHg 65%
    22:00 +16°C° 0.6 mm 2 mps 717 mmHg 72%
    23:00 +14°C° 0.6 mm 3 mps 717 mmHg 79%
    Show more